• In Austria
  • List of Countries
  • For 7 days
  • Water Temperature
  • Satellite Maps
  • Weather Map
  • News
  • Weather Widgets
  • user-avatar
    Login

    Hourly Weather Graz

    Today, 25 February, Sunday

    Time Temperature Precipitation Wind Pressure Humidity
    00:00 -9°C° 0 mm 2 mps 727 mmHg 88%
    01:00 -10°C° 0 mm 1 mps 727 mmHg 92%
    02:00 -12°C° 0 mm 2 mps 727 mmHg 92%
    03:00 -13°C° 0 mm 2 mps 727 mmHg 91%
    04:00 -13°C° 0 mm 2 mps 727 mmHg 91%
    05:00 -14°C° 0 mm 2 mps 727 mmHg 91%
    06:00 -13°C° 0 mm 1 mps 727 mmHg 91%
    07:00 -15°C° 0 mm 2 mps 727 mmHg 91%
    08:00 -13°C° 0 mm 2 mps 727 mmHg 84%
    09:00 -10°C° 0 mm 2 mps 727 mmHg 77%
    10:00 -8°C° 0 mm 2 mps 727 mmHg 70%
    11:00 -7°C° 0 mm 2 mps 727 mmHg 69%
    12:00 -7°C° 0 mm 2 mps 726 mmHg 67%
    13:00 -5°C° 0 mm 2 mps 726 mmHg 64%
    14:00 -6°C° 0 mm 2 mps 726 mmHg 67%
    15:00 -6°C° 0 mm 2 mps 726 mmHg 70%
    16:00 -7°C° 0 mm 2 mps 725 mmHg 73%
    17:00 -8°C° 0 mm 2 mps 725 mmHg 80%
    18:00 -10°C° 0 mm 2 mps 726 mmHg 86%
    19:00 -12°C° 0 mm 2 mps 726 mmHg 92%
    20:00 -11°C° 0 mm 1 mps 726 mmHg 92%
    21:00 -11°C° 0 mm 1 mps 726 mmHg 92%
    22:00 -12°C° 0 mm 1 mps 726 mmHg 92%
    23:00 -12°C° 0 mm 1 mps 726 mmHg 91%

    Tomorrow, 26 February, Monday

    Time Temperature Precipitation Wind Pressure Humidity
    00:00 -13°C° 0 mm 1 mps 725 mmHg 91%
    01:00 -15°C° 0 mm 2 mps 725 mmHg 91%
    02:00 -16°C° 0 mm 2 mps 725 mmHg 90%
    03:00 -16°C° 0 mm 2 mps 725 mmHg 90%
    04:00 -16°C° 0 mm 2 mps 724 mmHg 89%
    05:00 -16°C° 0 mm 2 mps 724 mmHg 89%
    06:00 -17°C° 0 mm 2 mps 724 mmHg 88%
    07:00 -17°C° 0 mm 2 mps 724 mmHg 88%
    08:00 -15°C° 0 mm 2 mps 724 mmHg 82%
    09:00 -13°C° 0 mm 2 mps 724 mmHg 77%
    10:00 -12°C° 0 mm 3 mps 724 mmHg 72%
    11:00 -10°C° 0 mm 3 mps 723 mmHg 71%
    12:00 -9°C° 0 mm 3 mps 723 mmHg 70%
    13:00 -9°C° 0 mm 3 mps 723 mmHg 69%
    14:00 -9°C° 0.1 mm 3 mps 722 mmHg 70%
    15:00 -9°C° 0.1 mm 3 mps 722 mmHg 72%
    16:00 -9°C° 0.1 mm 3 mps 722 mmHg 73%
    17:00 -10°C° 0.1 mm 3 mps 722 mmHg 77%
    18:00 -10°C° 0.1 mm 3 mps 722 mmHg 81%
    19:00 -10°C° 0.1 mm 2 mps 722 mmHg 85%
    20:00 -10°C° 0.1 mm 2 mps 722 mmHg 85%
    21:00 -12°C° 0.1 mm 2 mps 722 mmHg 85%
    22:00 -12°C° 0.1 mm 2 mps 722 mmHg 85%
    23:00 -12°C° 0.1 mm 2 mps 721 mmHg 85%

    Day after tomorrow, 27 February, Tuesday

    Time Temperature Precipitation Wind Pressure Humidity
    00:00 -12°C° 0.1 mm 2 mps 721 mmHg 85%
    01:00 -13°C° 0.1 mm 2 mps 721 mmHg 85%
    02:00 -13°C° 0.1 mm 2 mps 721 mmHg 85%
    03:00 -13°C° 0.1 mm 2 mps 721 mmHg 86%
    04:00 -13°C° 0.1 mm 2 mps 721 mmHg 86%
    05:00 -13°C° 0.1 mm 2 mps 720 mmHg 86%
    06:00 -13°C° 0.1 mm 2 mps 720 mmHg 85%
    07:00 -13°C° 0.1 mm 2 mps 720 mmHg 85%
    08:00 -12°C° 0.1 mm 2 mps 720 mmHg 81%
    09:00 -10°C° 0.1 mm 2 mps 721 mmHg 77%
    10:00 -9°C° 0.1 mm 2 mps 721 mmHg 73%
    11:00 -8°C° 0.1 mm 2 mps 720 mmHg 71%
    12:00 -8°C° 0.1 mm 2 mps 720 mmHg 70%
    13:00 -7°C° 0.1 mm 2 mps 720 mmHg 68%
    14:00 -7°C° 0.1 mm 2 mps 720 mmHg 69%
    15:00 -7°C° 0.1 mm 2 mps 720 mmHg 71%
    16:00 -7°C° 0.1 mm 2 mps 720 mmHg 73%
    17:00 -7°C° 0.1 mm 1 mps 721 mmHg 78%
    18:00 -8°C° 0.1 mm 1 mps 721 mmHg 83%
    19:00 -9°C° 0.1 mm 1 mps 721 mmHg 88%
    20:00 -10°C° 0 mm 1 mps 722 mmHg 89%
    21:00 -11°C° 0 mm 1 mps 722 mmHg 90%
    22:00 -11°C° 0 mm 1 mps 722 mmHg 90%
    23:00 -12°C° 0 mm 1 mps 722 mmHg 90%

    28 February, Wednesday

    Time Temperature Precipitation Wind Pressure Humidity
    00:00 -12°C° 0 mm 1 mps 722 mmHg 90%
    01:00 -13°C° 0 mm 1 mps 723 mmHg 89%
    02:00 -13°C° 0 mm 1 mps 723 mmHg 89%
    03:00 -13°C° 0 mm 1 mps 723 mmHg 89%
    04:00 -14°C° 0 mm 1 mps 723 mmHg 89%
    05:00 -14°C° 0 mm 1 mps 723 mmHg 89%
    06:00 -14°C° 0 mm 1 mps 724 mmHg 88%
    07:00 -14°C° 0 mm 1 mps 724 mmHg 88%
    08:00 -12°C° 0 mm 1 mps 724 mmHg 81%
    09:00 -9°C° 0 mm 1 mps 725 mmHg 75%
    10:00 -6°C° 0 mm 1 mps 725 mmHg 68%
    11:00 -4°C° 0 mm 1 mps 725 mmHg 66%
    12:00 -3°C° 0 mm 1 mps 725 mmHg 65%
    13:00 -2°C° 0 mm 1 mps 725 mmHg 63%
    14:00 -3°C° 0 mm 1 mps 725 mmHg 66%
    15:00 -3°C° 0 mm 1 mps 725 mmHg 69%
    16:00 -4°C° 0 mm 1 mps 725 mmHg 73%
    17:00 -6°C° 0 mm 1 mps 725 mmHg 79%
    18:00 -7°C° 0 mm 1 mps 725 mmHg 86%
    19:00 -9°C° 0 mm 1 mps 726 mmHg 92%
    20:00 -9°C° 0 mm 1 mps 726 mmHg 93%
    21:00 -10°C° 0 mm 1 mps 726 mmHg 93%
    22:00 -10°C° 0 mm 1 mps 726 mmHg 94%
    23:00 -10°C° 0 mm 1 mps 726 mmHg 94%

    1 March, Thursday

    Time Temperature Precipitation Wind Pressure Humidity
    00:00 -11°C° 0 mm 1 mps 726 mmHg 94%
    01:00 -11°C° 0 mm 1 mps 726 mmHg 94%
    02:00 -12°C° 0 mm 1 mps 725 mmHg 94%
    03:00 -12°C° 0 mm 1 mps 725 mmHg 94%
    04:00 -12°C° 0 mm 1 mps 724 mmHg 94%
    05:00 -12°C° 0 mm 1 mps 724 mmHg 94%
    06:00 -12°C° 0 mm 1 mps 724 mmHg 94%
    07:00 -12°C° 0 mm 1 mps 724 mmHg 93%
    08:00 -10°C° 0 mm 1 mps 724 mmHg 89%
    09:00 -8°C° 0 mm 1 mps 723 mmHg 84%
    10:00 -7°C° 0 mm 1 mps 723 mmHg 80%
    11:00 -7°C° 0 mm 2 mps 723 mmHg 79%
    12:00 -6°C° 0 mm 2 mps 722 mmHg 78%
    13:00 -5°C° 0 mm 2 mps 721 mmHg 77%
    14:00 -5°C° 0 mm 2 mps 720 mmHg 80%
    15:00 -5°C° 0 mm 2 mps 720 mmHg 83%
    16:00 -5°C° 0 mm 2 mps 719 mmHg 86%
    17:00 -6°C° 0.1 mm 2 mps 719 mmHg 88%
    18:00 -6°C° 0.1 mm 2 mps 720 mmHg 91%
    19:00 -7°C° 0.1 mm 2 mps 720 mmHg 94%
    20:00 -6°C° 0.1 mm 1 mps 720 mmHg 94%
    21:00 -6°C° 0.1 mm 1 mps 720 mmHg 95%
    22:00 -6°C° 0.1 mm 1 mps 719 mmHg 95%
    23:00 -6°C° 0.1 mm 1 mps 719 mmHg 95%

    2 March, Friday

    Time Temperature Precipitation Wind Pressure Humidity
    00:00 -6°C° 0.1 mm 1 mps 719 mmHg 95%
    01:00 -6°C° 0.1 mm 1 mps 719 mmHg 95%
    02:00 -6°C° 0 mm 1 mps 718 mmHg 95%
    03:00 -6°C° 0 mm 1 mps 718 mmHg 95%
    04:00 -6°C° 0 mm 1 mps 717 mmHg 95%
    05:00 -6°C° 0 mm 1 mps 717 mmHg 95%
    06:00 -4°C° 0 mm 1 mps 717 mmHg 95%
    07:00 -4°C° 0 mm 1 mps 717 mmHg 95%
    08:00 -3°C° 0 mm 1 mps 717 mmHg 92%
    09:00 -1°C° 0 mm 1 mps 717 mmHg 89%
    10:00 +1°C° 0 mm 1 mps 717 mmHg 86%
    11:00 +2°C° 0 mm 1 mps 716 mmHg 86%
    12:00 +3°C° 0 mm 1 mps 716 mmHg 86%
    13:00 +3°C° 0 mm 1 mps 716 mmHg 86%
    14:00 +3°C° 0 mm 1 mps 715 mmHg 88%
    15:00 +3°C° 0 mm 1 mps 715 mmHg 89%
    16:00 +3°C° 0 mm 1 mps 715 mmHg 91%
    17:00 +2°C° 0 mm 1 mps 715 mmHg 93%
    18:00 +1°C° 0 mm 1 mps 715 mmHg 95%
    19:00 0°C° 0 mm 1 mps 715 mmHg 97%
    20:00 0°C° 0 mm 1 mps 715 mmHg 97%
    21:00 0°C° 0 mm 1 mps 715 mmHg 97%
    22:00 0°C° 0 mm 1 mps 715 mmHg 97%
    23:00 0°C° 0 mm 1 mps 715 mmHg 97%
    Show more